Location: Oshawa
(43.9000°N, 78.8670°W)
Time: 10:10:29
(UTC-04:00)

Cosmos 1805 Rocket - Visible Passes

Search period start: 23 July 2014 00:00
Search period end: 02 August 2014 00:00
Orbit: 608 x 631 km, 82.5° (Epoch: 23 July)

Date Brightness Start Highest point End Pass type
(mag) Time Alt. Az. Time Alt. Az. Time Alt. Az.
23 Jul 5.6 03:08:46 10° NNE 03:12:29 25° ENE 03:16:10 10° SE visible
23 Jul 4.5 04:46:28 10° NNW 04:50:21 30° W 04:53:57 12° SSW visible
24 Jul 4.6 03:25:58 10° N 03:30:15 45° ENE 03:33:40 15° SSE visible
24 Jul 5.2 05:04:52 10° NW 05:07:45 17° W 05:10:38 10° SW visible
25 Jul 3.6 03:43:27 10° N 03:47:55 84° E 03:50:34 24° S visible
26 Jul 6.2 02:24:33 10° NNE 02:27:16 16° ENE 02:29:59 10° ESE visible
26 Jul 3.8 04:01:10 10° NNW 04:05:30 52° W 04:07:31 29° SSW visible
27 Jul 5.4 02:41:20 10° NNE 02:45:08 27° ENE 02:47:23 18° ESE visible
27 Jul 4.6 04:19:09 10° NNW 04:22:58 28° W 04:24:31 23° WSW visible
28 Jul 4.3 02:58:34 10° N 03:02:54 48° ENE 03:04:24 34° SE visible
28 Jul 5.3 04:37:39 10° NW 04:40:21 16° W 04:41:33 15° WSW visible
29 Jul 3.5 03:16:04 10° N 03:20:33 90° W 03:21:28 57° S visible
30 Jul 5.9 01:57:01 10° NNE 01:59:57 17° ENE 02:01:26 15° E visible
30 Jul 3.8 03:33:49 10° NNW 03:38:07 48° W 03:38:34 46° WSW visible
31 Jul 5.1 02:13:53 10° NNE 02:17:48 29° ENE 02:18:34 27° E visible
31 Jul 4.7 03:51:51 10° NNW 03:55:35 26° W 03:55:42 26° W visible
01 Aug 4.1 02:31:10 10° N 02:35:33 52° ENE 02:35:43 52° E visible
01 Aug 5.5 04:10:27 10° NW 04:12:52 15° W 04:12:52 15° W visible
